This demonstration page uses our WeatherBlox Daily Observations layout. Learn more.

Left ArrowRight Arrow

39.01783, -85.05884

Hourly Observations for September 23, 2018

Temp ( °F °C ) Dew Point ( °F °C ) Humidity (%) Winds ( mph kmh ) Pressure ( in mb ) Visibility ( mi km ) Precip ( " mm )
12:52 am 00:52 Cloudy 59 15 57 13.9 93 93 E 10 17 30.14 1021 10 16 N/A
1:52 am 01:52 Cloudy 59 15 56 13.3 90 90 ENE 9 15 30.12 1020 10 16 N/A
2:52 am 02:52 Mostly Cloudy 59 15 55 12.8 87 87 E 10 17 30.12 1020 10 16 N/A
3:52 am 03:52 Cloudy 58 14.4 55 12.8 90 90 ENE 10 17 30.11 1020 10 16 N/A
4:52 am 04:52 Cloudy 58 14.4 55 12.8 90 90 ENE 8 13 30.09 1019 10 16 N/A
5:52 am 05:52 Cloudy 59 15 55 12.8 87 87 NE 7 11 30.09 1019 10 16 N/A
6:52 am 06:52 Cloudy 59 15 55 12.8 87 87 ENE 10 17 30.09 1019 10 16 N/A
7:52 am 07:52 Cloudy 59 15 55 12.8 87 87 NE 8 13 30.09 1019 10 16 N/A
8:52 am 08:52 Cloudy 59 15 56 13.3 90 90 NE 8 13 30.10 1019 10 16 N/A
9:24 am 09:24 Cloudy 59 15 56 13.3 90 90 NE 9 15 30.12 1020 10 16 N/A
9:31 am 09:31 Mostly Cloudy 59 15 56 13.3 90 90 NE 7 11 30.12 1020 10 16 N/A
9:45 am 09:45 Cloudy 59 15 56 13.3 90 90 NE 10 17 30.15 1021 10 16 N/A
9:52 am 09:52 Cloudy 59 15 56 13.3 90 90 NE 8 13 30.12 1020 10 16 N/A
10:52 am 10:52 Cloudy 60 15.6 56 13.3 86 86 NNE 10 17 30.14 1021 10 16 N/A
11:52 am 11:52 Cloudy with Light Rain 60 15.6 57 13.9 90 90 ENE 10 17 30.14 1021 4 6 N/A
12:52 pm 12:52 Cloudy 63 17.2 59 15 87 87 NE 8 13 30.13 1020 10 16 N/A
1:52 pm 13:52 Mostly Cloudy 67 19.4 60 15.6 79 79 ENE 12 19 30.11 1020 10 16 N/A
2:52 pm 14:52 Mostly Cloudy 70 21.1 61 16.1 73 73 NE 12 19 30.08 1019 10 16 N/A
3:52 pm 15:52 Partly Cloudy 72 22.2 61 16.1 68 68 E 9 15 30.07 1018 10 16 N/A
4:52 pm 16:52 Mostly Cloudy 70 21.1 60 15.6 71 71 ENE 10 17 30.07 1018 10 16 N/A
5:52 pm 17:52 Cloudy 69 20.6 59 15 70 70 ENE 10 17 30.07 1018 10 16 N/A
6:52 pm 18:52 Cloudy 69 20.6 58 14.4 68 68 E 10 17 30.07 1018 10 16 N/A
7:14 pm 19:14 Cloudy 69 20.6 58 14.4 68 68 ENE 10 17 30.06 1018 10 16 N/A
7:52 pm 19:52 Mostly Cloudy 68 20 57 13.9 68 68 ENE 12 19 30.07 1018 10 16 N/A
8:52 pm 20:52 Cloudy 67 19.4 56 13.3 68 68 E 12 19 30.08 1019 10 16 N/A
9:49 pm 21:49 Mostly Cloudy 64 18 55 13 73 73 E 8 13 30.12 1020 10 16 N/A
9:52 pm 21:52 Mostly Cloudy 65 18.3 55 12.8 70 70 E 8 13 30.10 1019 10 16 N/A
10:13 pm 22:13 Cloudy 65 18.3 55 12.8 70 70 E 10 17 30.12 1020 10 16 N/A
10:52 pm 22:52 Cloudy 65 18.3 56 13.3 73 73 E 8 13 30.10 1019 10 16 N/A
11:18 pm 23:18 Cloudy 65 18.3 57 13.9 76 76 ESE 9 15 30.12 1020 10 16 N/A
11:52 pm 23:52 Cloudy 65 18.3 58 14.4 78 78 E 12 19 30.10 1019 10 16 N/A

Powered by AerisWeather